Regional Weather Roundup
Issued by NWS Binghamton, NY

Home | Current Version | Previous Version | Text Only | Print | Product List | Glossary On
Versions: 1 2 3 4 5 6 7 8 9 10 11 12 13 14 15 16 17 18 19 20 21 22 23 24 25 26 27 28 29 30 31 32 33 34 35 36 37 38 39 40 41 42 43 44 45 46 47 48 49 50
000
ASUS41 KBGM 291410
RWRBGM
RWRBGM
BINGHAMTON REGIONAL WEATHER ROUNDUP
NATIONAL WEATHER SERVICE BINGHAMTON NY
1000 AM EDT SAT AUG 29 2015

Note: "fair" indicates few or no clouds below 12,000 feet with no
significant weather and/or obstructions to visibility.

* = Station(s) that does not report precipitation, such as rain,
snow, etc, also no thunder or fog.

!NYZ009-015>018-022>025-036-037-044>046-055>057-062-291500
...CENTRAL NEW YORK...

CITY           SKY/WX    TMP DP  RH WIND       PRES   REMARKS
BINGHAMTON     MOSUNNY   65  56  72 S3        30.22S
CORTLAND       FAIR      64  59  82 CALM      30.22S
DANSVILLE      MOSUNNY   67  57  70 SE10      30.18F
ELMIRA         MOSUNNY   56  56 100 CALM      30.20F
ITHACA         SUNNY     70  58  65 SW6       30.21S
HORNELL        SUNNY     64  55  72 CALM      30.24S
MONTICELLO     SUNNY     64  55  72 CALM      30.25S
NORWICH        SUNNY     61  61 100 SE3       30.22S
ONEONTA        SUNNY     66  54  63 SW6       30.23S
PENN YAN       SUNNY     69  58  67 S8        30.19S
ROME           MOSUNNY   66  57  72 SE6       30.20S
SIDNEY         MOSUNNY   57  57 100 CALM      30.23S
SYRACUSE       PTSUNNY   69  59  70 CALM      30.16F
$$

!PAZ038>040-043-044-047-048-072-291500
...NORTHEAST PENNSYLVANIA...

CITY           SKY/WX    TMP DP  RH WIND       PRES   REMARKS
HAZLETON       SUNNY     72  59  64 S5        30.27S
SCRANTON       SUNNY     69  55  60 CALM      30.22F
TOWANDA*       PTSUNNY   57  57 100 MISG      30.23S
$$
&&
KEY
WCI = WIND CHILL INDEX
VSB = VISIBILITY
HX  = HEAT INDEX
$$


USA.gov is the U.S. government's official web portal to all federal, state and local government web resources and services.